Probability
0 0 0 0 0 0 0 0 0 0 0 0 0 0 0 0 0 0 0 0 0 0 0 0 1 2 3 3 2 1 0 0 1 1 0 0 0 0 0 0 0 0 0 0
0 0 0 0 0 0 0 0 0 0 0 0 0 0 0 0 0 0 0 0 0 0 0 0 1 2 2 2 2 1 0 1 2 2 1 0 0 0 0 0 0 0 0 0
0 0 0 0 0 0 0 0 0 0 0 0 0 0 0 0 0 0 0 0 0 0 0 0 0 1 1 1 1 1 0 1 2 3 2 1 0 0 0 0 0 0 0 0
0 0 0 0 0 0 0 0 0 0 0 0 0 0 0 0 0 0 0 0 0 0 0 0 0 0 0 0 0 0 0 1 2 3 3 2 1 0 0 0 0 0 0 0
0 0 0 0 0 0 0 0 0 0 0 0 0 0 0 0 0 0 0 0 0 0 0 0 0 0 0 0 0 0 0 0 1 3 3 3 1 1 0 0 0 0 0 0
0 0 0 0 0 0 0 0 0 0 0 0 0 0 0 0 0 0 0 0 0 0 0 0 0 0 0 0 0 0 0 0 1 2 3 3 3 2 1 0 0 0 0 0
0 0 0 0 0 0 0 0 0 0 0 0 0 0 0 0 0 0 0 0 0 0 0 0 0 0 0 0 0 0 0 0 1 2 3 3 3 3 1 1 1 0 1 1
0 0 0 0 0 0 0 0 0 0 0 0 0 0 0 0 0 0 0 0 0 0 0 0 0 0 0 0 0 0 0 0 0 1 3 3 3 3 3 2 2 2 2 2
0 0 0 0 0 0 0 0 0 0 0 0 0 0 0 0 0 0 0 0 0 0 0 0 0 0 0 0 0 0 0 0 0 1 2 3 3 3 3 3 3 3 3 3
0 0 0 0 0 0 0 0 0 0 0 0 0 0 0 0 0 0 0 0 0 0 0 0 0 0 0 0 0 0 0 0 0 1 2 3 3 3 3 3 3 3 3 3
0 0 0 0 0 0 0 0 0 0 0 0 0 0 0 0 0 0 0 0 0 0 0 0 0 0 0 0 0 0 0 0 0 1 2 3 3 3 3 3 3 3 3 3
0 0 0 0 0 0 0 0 0 0 0 0 0 0 0 0 0 0 0 0 0 0 0 0 0 0 0 0 0 0 0 0 0 0 1 1 2 3 3 3 3 3 3 3
0 0 0 0 0 0 0 0 0 0 0 0 0 0 0 0 0 0 0 0 0 0 0 0 0 0 0 0 0 0 0 0 0 0 0 0 1 1 2 3 3 3 3 3
0 0 0 0 0 0 0 0 0 0 0 0 0 0 0 0 0 0 0 0 0 0 0 0 0 0 0 0 0 0 0 0 0 0 0 0 0 0 1 1 2 3 3 3
0 0 0 0 0 0 0 0 0 0 0 0 0 0 0 0 0 0 0 0 0 0 0 0 0 0 0 0 0 0 0 0 0 0 0 0 0 0 0 0 1 2 3 3
0 0 0 0 0 0 0 0 0 0 0 0 0 0 0 0 0 0 0 0 0 0 0 0 0 0 0 0 0 0 0 0 0 0 0 0 0 0 0 0 0 1 2 3
0 0 0 0 0 0 0 0 0 0 0 0 0 0 0 0 0 0 0 0 0 0 0 0 0 0 0 0 0 0 0 0 0 0 0 0 0 0 0 0 0 0 1 2
0 0 0 0 0 0 0 0 0 0 0 0 0 0 0 0 0 0 0 0 0 0 0 0 0 0 0 0 0 0 0 0 0 0 0 0 0 0 0 0 0 0 0 1
0 0 0 0 0 0 0 0 0 0 0 0 0 0 0 0 0 0 0 0 0 0 0 0 0 0 0 0 0 0 0 0 0 0 0 0 0 0 1 1 0 0 0 0
0 0 0 0 0 0 0 0 0 0 0 0 0 0 0 0 0 0 0 0 0 0 0 0 0 0 0 0 0 0 0 1 1 0 0 0 0 0 1 2 1 0 0 0
0 0 0 0 0 0 0 0 0 0 0 0 0 0 0 0 0 0 0 0 0 0 0 0 0 0 0 0 0 0 1 2 1 0 0 0 0 0 1 2 2 1 0 0
0 0 0 0 0 0 0 0 0 0 0 0 0 0 0 0 0 0 0 0 0 0 0 0 0 0 0 0 0 0 1 1 1 0 0 0 0 0 1 3 2 1 0 0
0 0 0 0 0 0 0 0 0 0 0 0 0 0 0 0 0 0 0 0 0 0 0 0 0 0 0 0 0 0 0 0 0 0 0 0 0 1 2 3 2 1 0 0
0 0 0 0 0 0 0 0 0 0 0 0 0 0 0 0 0 0 0 0 0 0 0 0 0 0 0 0 0 0 0 0 0 0 0 0 1 1 2 2 1 0 0 0
0 0 0 0 0 0 0 0 0 0 0 0 0 0 0 0 0 0 0 0 0 0 0 0 0 0 0 0 0 0 0 0 0 0 1 1 2 2 1 1 0 0 0 0
0 0 0 0 0 0 0 0 0 0 0 0 0 0 0 0 0 0 0 0 0 0 0 0 0 0 0 0 0 0 0 0 0 1 2 2 3 2 1 0 0 0 0 0
Wind_Speed
2 3 1 0 1 0 1 1 1 2 1 1 1 1 2 2 4 4 4 5 4 4 4 5 6 7 7 6 6 6 6 5 4 3 3 3 2 2 2 1 2 2 1 1
4 2 1 1 2 3 2 1 1 1 1 2 1 2 2 2 3 3 3 3 4 4 5 5 6 7 7 7 7 6 6 6 5 3 3 2 2 2 1 1 2 2 2 1
2 2 1 3 4 3 2 1 1 1 1 1 2 1 3 3 2 2 2 2 3 3 4 5 6 7 7 7 7 6 6 6 6 5 3 3 2 2 3 2 1 1 1 1
1 0 2 2 1 2 1 0 2 3 4 1 3 1 2 3 2 2 2 3 3 3 4 5 6 6 7 7 6 6 6 6 6 6 5 5 3 3 2 1 2 2 2 1
2 1 1 2 1 2 0 1 2 3 3 3 3 3 2 3 1 1 2 3 3 3 4 5 5 6 6 5 5 5 6 5 5 5 5 5 4 2 2 2 2 2 2 2
1 1 1 0 0 1 3 3 3 4 4 3 1 3 1 2 1 1 1 2 3 3 4 4 5 4 4 4 5 5 6 5 5 6 6 6 4 3 3 3 2 2 2 2
3 3 2 2 3 4 3 4 3 4 3 1 1 3 0 2 1 1 1 2 2 3 4 4 5 5 5 5 5 6 6 6 6 6 6 6 5 4 4 3 3 2 2 2
4 4 3 2 3 3 3 4 3 2 1 1 3 2 2 2 1 0 1 2 3 3 3 4 4 4 5 5 6 6 6 6 6 6 6 5 4 3 2 3 2 2 1 1
2 2 3 1 2 4 3 3 4 5 3 3 2 2 2 2 1 1 1 2 3 3 3 4 4 4 5 5 6 6 6 6 6 6 5 5 5 4 3 3 2 2 2 1
2 2 2 2 4 2 3 2 3 4 3 3 2 2 1 1 1 1 0 1 2 3 3 3 4 4 4 4 4 5 5 6 6 5 5 4 4 4 4 3 3 2 2 2
3 4 3 4 4 3 4 4 4 3 4 4 2 1 2 1 0 1 1 1 1 2 3 4 3 4 4 4 4 5 5 4 5 5 5 5 4 4 4 3 3 3 2 3
2 4 3 3 1 3 4 4 5 4 3 4 4 0 4 1 1 1 1 1 0 1 2 3 3 3 4 4 4 4 4 5 4 5 5 5 4 4 4 4 3 3 3 3
2 4 4 5 5 5 4 4 4 5 5 5 5 1 4 2 1 0 1 1 0 1 2 3 3 3 3 3 3 4 4 4 5 5 5 5 4 4 4 4 3 3 3 3
4 5 5 4 2 1 4 5 6 7 6 6 6 5 2 2 1 1 1 1 0 1 2 2 3 3 3 3 3 3 3 4 5 5 5 5 5 4 4 4 4 4 4 3
4 5 5 6 5 6 7 7 8 10 9 8 6 6 5 3 3 2 2 1 1 2 2 2 3 3 3 3 3 3 3 4 5 5 5 5 5 4 4 4 4 4 4 3
3 5 5 6 5 7 9 9 9 10 10 10 10 9 4 2 2 3 2 2 2 2 2 2 2 2 3 3 3 4 4 4 4 5 5 5 4 4 4 4 4 4 4 4
3 5 5 5 4 7 9 8 9 8 8 9 9 5 2 3 3 3 2 3 3 3 2 2 2 2 2 2 2 3 4 4 5 5 5 5 5 5 5 5 5 5 5 4
6 6 4 5 5 8 1 1 4 6 7 7 7 5 4 3 2 2 2 3 2 2 2 2 2 2 1 1 2 3 4 5 5 5 5 5 5 5 5 5 5 5 5 5
8 7 5 5 6 7 4 2 3 6 6 5 6 5 3 2 3 3 1 1 2 2 2 2 1 1 1 1 2 3 4 4 4 4 5 5 5 5 5 5 5 5 4 5
6 8 7 6 7 6 1 2 1 5 5 1 3 3 3 4 5 1 1 1 1 0 1 1 1 1 1 1 2 3 4 4 4 4 5 5 5 5 6 6 5 5 5 5
7 7 9 10 9 6 1 1 3 6 2 2 2 3 4 4 3 1 1 1 1 1 1 1 1 1 1 1 2 3 3 4 4 4 4 4 5 5 5 5 5 5 5 5
7 6 8 7 9 6 3 3 4 4 3 1 2 3 3 2 1 1 2 1 1 1 1 2 2 2 1 2 3 3 3 3 3 3 4 4 4 4 4 4 5 5 5 5
7 5 4 5 4 4 1 3 3 4 4 3 3 3 3 4 3 3 3 2 2 3 2 2 3 2 2 2 3 3 3 3 3 3 4 4 4 4 4 4 4 4 5 4
5 3 6 7 6 4 5 5 5 5 6 5 5 4 5 5 4 4 4 3 3 3 3 3 3 3 3 3 3 3 3 3 4 4 4 4 4 4 4 3 3 3 4 4
5 5 7 9 7 6 6 6 6 5 5 5 5 5 6 5 5 5 5 4 4 4 3 4 4 4 3 3 3 3 3 3 4 4 4 4 4 4 4 3 2 3 3 3
7 8 8 8 7 7 6 5 6 7 6 6 6 6 5 5 6 6 5 4 4 4 4 4 4 4 4 3 3 3 3 3 4 4 4 3 3 3 3 3 2 1 1 2
Wind_Direction
158 184 175 271 277 243 168 154 92 45 24 298 283 247 216 191 199 200 201 198 203 210 201 192 195 195 193 192 193 184 184 178 174 172 180 175 167 161 146 141 145 148 157 144
166 139 38 133 154 162 179 188 96 77 35 300 300 278 196 194 212 224 221 207 203 203 193 180 190 189 193 193 198 192 190 185 183 180 179 171 160 162 137 144 143 162 159 149
153 66 116 169 158 169 191 250 269 307 308 215 259 214 155 153 173 192 215 212 202 201 201 181 186 184 188 193 196 198 192 185 186 177 169 156 152 177 168 163 157 158 162 158
149 179 172 171 157 228 207 173 233 245 252 253 282 256 140 145 161 167 184 191 202 194 196 183 184 185 192 195 195 195 190 186 180 177 181 181 189 191 187 176 166 156 155 163
133 145 209 206 276 266 84 157 231 267 271 245 244 252 129 148 176 163 165 183 196 202 196 184 187 190 191 188 191 193 185 184 176 180 183 197 198 194 181 178 171 165 142 147
164 174 288 312 113 156 159 184 201 231 245 232 264 268 137 116 299 291 203 183 189 190 189 183 177 177 178 174 181 184 181 176 176 182 188 199 193 190 178 177 169 169 152 155
179 168 162 189 177 162 214 240 221 208 207 161 116 259 69 59 4 306 260 189 174 172 175 175 172 173 173 174 178 181 182 178 180 186 192 198 196 190 183 179 173 179 161 160
203 172 158 204 249 242 231 271 287 292 281 140 194 238 85 64 56 77 147 152 153 157 162 164 169 175 176 177 180 182 183 182 182 189 193 195 185 190 179 183 175 178 167 157
230 155 138 189 263 253 230 239 294 287 275 262 198 174 150 133 105 84 108 145 156 161 165 164 165 172 173 176 179 182 182 182 182 188 188 186 181 182 175 181 179 170 162 151
277 230 168 178 202 203 282 267 233 251 271 256 219 218 211 162 353 19 41 197 183 177 174 168 165 166 166 166 169 173 184 184 179 180 180 178 183 181 180 176 173 171 162 150
263 244 189 192 226 229 202 211 231 251 280 288 269 137 66 169 309 294 307 306 195 191 184 173 169 165 157 156 161 166 176 180 175 178 178 176 182 183 177 178 176 180 172 168
259 269 233 215 191 280 256 252 244 258 247 270 284 63 98 125 147 265 300 343 112 167 180 171 163 158 158 155 161 166 172 172 175 178 177 180 178 179 182 179 180 187 182 182
197 246 237 193 180 190 216 223 240 261 263 254 258 179 115 129 138 343 318 341 77 137 160 165 163 162 161 156 159 165 169 166 165 172 177 179 182 186 190 189 188 194 191 182
254 246 262 282 337 262 238 227 229 242 253 256 256 266 226 241 259 267 287 296 171 144 151 161 169 173 172 170 167 166 167 164 164 168 175 183 189 191 195 194 197 199 196 190
259 260 258 272 278 264 263 258 244 247 259 268 273 271 275 271 258 244 225 202 182 159 165 169 176 176 178 176 179 172 173 172 173 176 182 187 190 189 194 192 201 199 197 200
265 264 258 252 249 253 260 258 250 250 254 256 264 269 280 271 235 227 216 196 193 187 187 179 182 182 188 191 193 186 185 182 181 186 190 185 188 187 196 196 198 200 202 203
228 250 261 258 254 258 251 246 239 239 240 247 256 267 255 235 235 235 223 204 207 201 202 196 190 196 214 210 213 208 196 186 185 188 185 184 188 190 195 193 194 201 202 199
237 242 258 267 247 247 291 72 248 243 248 250 257 268 261 258 254 251 230 212 221 218 212 211 211 197 217 224 218 217 199 194 191 187 185 188 190 193 194 196 199 204 201 196
238 238 244 252 256 265 241 202 225 242 251 247 250 254 256 244 216 210 207 229 245 229 216 212 228 215 206 219 214 202 194 194 193 195 197 195 193 192 195 197 202 204 203 201
211 228 239 239 252 254 298 95 267 254 243 201 240 248 229 218 239 217 150 208 237 240 214 212 226 240 217 223 218 206 202 205 206 207 209 200 197 199 202 204 204 201 202 204
195 208 226 239 250 260 17 101 203 236 333 58 257 250 227 241 309 35 159 198 218 213 215 219 222 238 250 235 213 212 209 218 217 214 213 210 204 206 206 204 198 198 199 200
228 220 221 230 239 245 110 171 226 312 3 312 269 253 243 257 301 209 208 218 240 237 225 223 231 245 251 230 220 225 226 227 217 213 212 212 206 198 193 192 195 197 192 196
234 245 251 243 270 7 196 247 316 324 296 294 278 265 246 244 242 240 234 232 242 243 232 229 233 235 242 230 226 238 241 230 213 206 207 205 198 188 184 184 186 189 191 199
223 244 244 249 254 268 265 268 280 284 285 289 282 268 252 247 241 240 240 238 240 239 236 232 231 231 238 239 232 242 247 232 215 208 204 198 195 185 180 182 186 190 195 199
238 218 241 254 268 273 260 265 278 283 281 279 275 267 259 251 245 243 243 241 243 238 234 232 237 241 246 246 237 239 235 224 219 211 202 200 194 183 180 179 186 198 198 200
227 233 244 257 265 268 278 290 286 277 271 269 271 270 260 247 248 248 246 241 239 238 236 236 237 242 246 245 235 237 235 230 225 213 202 197 188 181 183 179 170 117 213 155